WZ8H Weather Reports


time (UTC)temp
C
wind
direction
speed
KPH
gust
KPH
rain 1hr
cm
rain 24hr
cm
rain mn
cm
humidity
%
barometer
mb
20260505130215 16 261 8.0 16.1 0.00 0.00 0.00 77 1004.3
20260505124635 16 265 8.0 16.1 0.00 0.00 0.00 78 1004.4
20260505124110 16 262 6.4 19.3 0.00 0.00 0.00 77 1004.4
20260505123611 16 274 6.4 19.3 0.00 0.00 0.00 78 1004.3
20260505123037 16 225 6.4 17.7 0.00 0.00 0.00 79 1004.5
20260505122536 16 252 6.4 12.9 0.00 0.00 0.00 79 1004.4
20260505122009 16 219 4.8 11.3 0.00 0.00 0.00 79 1004.5
20260505121504 16 231 6.4 12.9 0.00 0.00 0.00 79 1004.4
20260505120938 16 279 6.4 12.9 0.00 0.00 0.00 80 1004.3
20260505120434 16 190 4.8 11.3 0.00 0.00 0.00 79 1004.3
20260505115909 16 227 6.4 17.7 0.00 0.00 0.00 79 1004.0
20260505115341 16 229 6.4 17.7 0.00 0.00 0.00 79 1003.9
20260505114839 16 242 6.4 16.1 0.00 0.00 0.00 78 1003.7
20260505114342 16 267 6.4 16.1 0.00 0.00 0.00 78 1003.3
20260505113811 16 246 8.0 19.3 0.00 0.00 0.00 78 1003.1
20260505113245 16 267 6.4 19.3 0.00 0.00 0.00 77 1003.0
20260505112720 16 237 8.0 17.7 0.00 0.00 0.00 77 1003.0
20260505112151 16 236 8.0 14.5 0.00 0.00 0.00 77 1002.8
20260505111650 16 238 6.4 19.3 0.00 0.00 0.00 77 1002.5
20260505111122 16 236 6.4 19.3 0.00 0.00 0.00 77 1002.5
20260505110625 16 242 6.4 17.7 0.00 0.00 0.00 78 1002.5
20260505110115 16 247 4.8 11.3 0.00 0.00 0.00 78 1002.4
20260505101918 16 246 6.4 20.9 0.00 0.00 0.00 76 1002.3
20260505101355 16 269 8.0 24.1 0.00 0.00 0.00 76 1002.2
20260505100827 16 274 8.0 24.1 0.00 0.00 0.00 76 1002.3
20260505100259 16 251 8.0 22.5 0.00 0.00 0.00 76 1002.3
20260505095757 16 215 8.0 22.5 0.00 0.00 0.00 76 1002.3
20260505095254 16 264 8.0 17.7 0.00 0.00 0.00 76 1002.1
20260505094751 16 242 8.0 19.3 0.00 0.00 0.00 76 1002.2
20260505094226 16 229 8.0 19.3 0.00 0.00 0.00 77 1002.1
20260505093657 16 228 6.4 14.5 0.00 0.00 0.00 77 1001.9
20260505093152 16 248 6.4 14.5 0.00 0.00 0.00 77 1001.9
20260505092628 17 221 8.0 17.7 0.00 0.00 0.00 76 1001.7
20260505092059 17 266 8.0 17.7 0.00 0.00 0.00 76 1001.5
20260505091557 17 246 6.4 16.1 0.00 0.00 0.00 76 1001.6
20260505091053 17 210 6.4 16.1 0.00 0.00 0.00 75 1001.7
20260505090551 17 242 8.0 12.9 0.00 0.00 0.00 75 1001.7
20260505090024 17 161 8.0 19.3 0.00 0.00 0.00 75 1001.8
20260505085520 17 261 8.0 19.3 0.00 0.00 0.00 75 1001.7
20260505085018 17 277 8.0 24.1 0.00 0.00 0.00 75 1001.6
20260505084514 17 254 9.7 24.1 0.00 0.00 0.00 75 1001.6
20260505084012 17 225 8.0 20.9 0.00 0.00 0.00 76 1001.5
20260505083507 17 120 6.4 12.9 0.00 0.00 0.00 76 1001.7
20260505082949 17 248 4.8 16.1 0.00 0.00 0.00 77 1001.4
20260505082420 17 273 4.8 9.7 0.00 0.00 0.00 77 1001.4
20260505081922 17 251 4.8 11.3 0.00 0.00 0.00 78 1001.4
20260505081419 17 212 4.8 11.3 0.00 0.00 0.00 78 1001.3
20260505080857 17 224 4.8 11.3 0.00 0.00 0.00 78 1001.2
20260505080353 17 198 3.2 11.3 0.00 0.00 0.00 78 1001.2
20260505075851 17 225 3.2 6.4 0.00 0.00 0.00 78 1001.0
20260505075349 16 273 3.2 6.4 0.00 0.00 0.00 79 1000.9
20260505074831 16 252 3.2 8.0 0.00 0.00 0.00 80 1000.9
20260505074315 16 252 3.2 11.3 0.00 0.00 0.00 80 1001.0
20260505073816 17 148 3.2 11.3 0.00 0.00 0.00 79 1000.9
20260505073314 17 231 3.2 6.4 0.00 0.00 0.00 78 1001.0
20260505072813 17 202 3.2 11.3 0.00 0.00 0.00 76 1000.9
20260505072304 17 212 4.8 11.3 0.00 0.00 0.00 76 1000.9
20260505071809 17 265 3.2 9.7 0.00 0.00 0.00 75 1001.0
20260505071246 17 267 3.2 9.7 0.00 0.00 0.00 76 1001.0
20260505070752 17 255 3.2 6.4 0.00 0.00 0.00 76 1001.2
20260505070246 17 261 3.2 8.0 0.00 0.00 0.00 76 1001.1
20260505065746 17 247 3.2 11.3 0.00 0.00 0.00 77 1001.4
20260505065230 17 254 3.2 11.3 0.00 0.00 0.00 77 1001.3
20260505064713 17 257 3.2 11.3 0.00 0.00 0.00 76 1001.5
20260505064211 18 241 4.8 11.3 0.00 0.00 0.00 76 1001.5
20260505063715 18 236 3.2 11.3 0.00 0.00 0.00 74 1001.6
20260505063148 18 288 4.8 8.0 0.00 0.00 0.00 72 1001.6
20260505062623 19 340 6.4 27.4 0.00 0.00 0.00 70 1001.7
20260505062109 19 261 6.4 14.5 0.00 0.00 0.00 69 1001.7
20260505061541 19 277 6.4 17.7 0.00 0.00 0.00 70 1001.6
20260505061046 19 263 8.0 17.7 0.00 0.00 0.00 70 1001.8
20260505060543 19 281 8.0 17.7 0.00 0.00 0.00 70 1001.9
20260505060021 20 250 8.0 19.3 0.00 0.00 0.00 69 1001.0
20260505055513 19 203 8.0 19.3 0.00 0.00 0.00 69 1000.9
20260505054952 20 242 8.0 16.1 0.00 0.00 0.00 69 1001.0
20260505054425 20 231 8.0 17.7 0.00 0.00 0.00 69 1000.9
20260505053904 19 225 8.0 17.7 0.00 0.00 0.00 70 1000.9
20260505053340 19 190 6.4 14.5 0.00 0.00 0.00 70 1000.9
20260505052814 19 198 6.4 14.5 0.00 0.00 0.00 71 1000.9
20260505052251 19 236 6.4 14.5 0.00 0.00 0.00 72 1001.0
20260505051753 19 254 8.0 14.5 0.00 0.00 0.00 72 1001.1
20260505051233 19 210 8.0 24.1 0.00 0.00 0.00 72 1001.1
20260505050703 20 200 8.0 24.1 0.00 0.00 0.00 71 1001.2
20260505050136 19 219 6.4 12.9 0.00 0.00 0.00 69 1001.3
20260505041544 18 202 6.4 12.9 0.00 0.00 0.00 73 1001.5
20260505041030 18 236 6.4 12.9 0.00 0.00 0.00 73 1001.5
20260505040527 18 186 6.4 17.7 0.00 0.00 0.00 73 1001.5
20260505040001 18 215 6.4 17.7 0.00 0.00 0.00 73 1001.5
20260505035458 18 200 6.4 12.9 0.00 0.00 0.00 73 1001.6
20260505034952 18 197 8.0 12.9 0.00 0.00 0.00 72 1001.6
20260505034450 18 199 9.7 16.1 0.00 0.00 0.00 72 1001.7
20260505033930 18 207 9.7 16.1 0.00 0.00 0.00 72 1001.7
20260505033430 18 182 9.7 17.7 0.00 0.00 0.00 72 1001.7
20260505032910 18 198 8.0 17.7 0.00 0.00 0.00 72 1001.8
20260505032341 18 189 8.0 19.3 0.00 0.00 0.00 72 1001.8
20260505031841 18 198 6.4 19.3 0.00 0.00 0.00 71 1001.8
20260505031316 19 227 4.8 12.9 0.00 0.00 0.00 71 1001.9
20260505030817 19 221 4.8 11.3 0.00 0.00 0.00 70 1002.0
20260505030301 19 241 4.8 11.3 0.00 0.00 0.00 69 1002.0
20260505025750 19 270 4.8 9.7 0.00 0.00 0.00 69 1002.0
20260505025249 19 200 6.4 11.3 0.00 0.00 0.00 69 1002.0
20260505024750 19 213 6.4 11.3 0.00 0.00 0.00 68 1002.1
20260505024235 19 213 6.4 16.1 0.00 0.00 0.00 67 1002.0
20260505023737 20 198 6.4 11.3 0.00 0.00 0.00 67 1002.0
20260505023221 20 200 6.4 17.7 0.00 0.00 0.00 66 1002.0
20260505022723 20 200 6.4 12.9 0.00 0.00 0.00 66 1001.9
20260505022155 20 169 6.4 14.5 0.00 0.00 0.00 65 1001.9
20260505021640 20 207 6.4 14.5 0.00 0.00 0.00 64 1002.0
20260505021140 20 195 6.4 12.9 0.00 0.00 0.00 64 1002.0
20260505020640 20 196 6.4 12.9 0.00 0.00 0.00 63 1001.9
20260505020139 20 209 6.4 16.1 0.00 0.00 0.00 62 1001.9
20260505015637 20 196 6.4 16.1 0.00 0.00 0.00 62 1001.9
20260505015109 20 213 6.4 11.3 0.00 0.00 0.00 62 1001.9
20260505014553 20 215 6.4 11.3 0.00 0.00 0.00 62 1001.9
20260505014031 21 219 6.4 11.3 0.00 0.00 0.00 61 1001.9
20260505013527 21 214 4.8 12.9 0.00 0.00 0.00 61 1001.8
20260505013031 21 191 4.8 12.9 0.00 0.00 0.00 61 1001.6
20260505012529 21 232 6.4 14.5 0.00 0.00 0.00 61 1001.5
20260505012008 21 225 6.4 14.5 0.00 0.00 0.00 60 1001.5
20260505011506 21 202 6.4 12.9 0.00 0.00 0.00 61 1001.4
20260505011004 20 217 4.8 9.7 0.00 0.00 0.00 62 1001.4
20260505010436 20 234 4.8 12.9 0.00 0.00 0.00 63 1001.4
20260505005938 20 213 6.4 12.9 0.00 0.00 0.00 63 1001.4
20260505005407 20 280 6.4 14.5 0.00 0.00 0.00 63 1001.4
20260505004842 21 250 6.4 19.3 0.00 0.00 0.00 62 1001.3
20260505004316 21 242 6.4 19.3 0.00 0.00 0.00 62 1001.2
20260505003810 21 247 6.4 16.1 0.00 0.00 0.00 61 1001.1
20260505003245 21 244 8.0 16.1 0.00 0.00 0.00 61 1001.2
20260505002744 21 248 8.0 19.3 0.00 0.00 0.00 61 1001.2
20260505002212 21 252 8.0 19.3 0.00 0.00 0.00 61 1001.0
20260505001705 21 215 8.0 17.7 0.00 0.00 0.00 61 1000.9
20260505001146 21 265 9.7 17.7 0.00 0.00 0.00 62 1000.9
20260505000627 21 242 8.0 20.9 0.00 0.00 0.00 61 1001.0
20260505000135 21 243 8.0 20.9 0.00 0.00 0.00 62 1000.8
20260504235627 21 243 8.0 16.1 0.00 0.00 0.00 62 1000.9
20260504235129 21 281 8.0 17.7 0.00 0.00 0.00 62 1000.8
20260504234600 21 217 9.7 22.5 0.00 0.00 0.00 62 1000.6
20260504234059 21 246 8.0 20.9 0.00 0.00 0.00 62 1000.6
20260504233559 21 232 9.7 17.7 0.00 0.00 0.00 61 1000.6
20260504233058 22 256 9.7 27.4 0.00 0.00 0.00 61 1000.6
20260504232532 22 236 9.7 27.4 0.00 0.00 0.00 60 1000.6
20260504232004 22 180 9.7 19.3 0.00 0.00 0.00 60 1000.5
20260504231502 22 268 9.7 19.3 0.00 0.00 0.00 60 1000.5
20260504230942 22 269 8.0 19.3 0.00 0.00 0.00 61 1000.4
20260504230435 22 222 8.0 17.7 0.00 0.00 0.00 60 1000.3
20260504225927 22 248 8.0 17.7 0.00 0.00 0.00 60 1000.3
20260504225404 23 240 8.0 17.7 0.00 0.00 0.00 60 1000.3
20260504224903 23 229 9.7 17.7 0.00 0.00 0.00 59 1000.3
20260504224403 23 217 11.3 17.7 0.00 0.00 0.00 58 1000.3
20260504223909 23 208 9.7 24.1 0.00 0.00 0.00 59 1000.4
20260504223342 23 243 9.7 24.1 0.00 0.00 0.00 58 1000.5
20260504222839 23 213 8.0 19.3 0.00 0.00 0.00 59 1000.5
20260504222311 23 249 9.7 24.1 0.00 0.00 0.00 59 1000.6
20260504221810 23 197 11.3 24.1 0.00 0.00 0.00 58 1000.7
20260504221240 23 247 11.3 22.5 0.00 0.00 0.00 58 1000.6
20260504220741 23 225 12.9 27.4 0.00 0.00 0.00 58 1000.7
20260504220212 23 225 11.3 24.1 0.00 0.00 0.00 59 1000.7
20260504215644 22 244 11.3 25.7 0.00 0.00 0.00 60 1000.8
20260504215142 22 240 11.3 25.7 0.00 0.00 0.00 60 1000.9
20260504214614 22 215 9.7 24.1 0.00 0.00 0.00 61 1000.9
20260504214118 22 248 11.3 22.5 0.00 0.00 0.00 61 1001.0
20260504213611 22 211 9.7 22.5 0.00 0.00 0.00 60 1000.9
20260504213106 23 221 9.7 22.5 0.00 0.00 0.00 59 1000.9
20260504212541 23 183 9.7 24.1 0.00 0.00 0.00 58 1000.8
20260504212014 23 283 8.0 24.1 0.00 0.00 0.00 59 1001.0
20260504211446 23 279 8.0 16.1 0.00 0.00 0.00 59 1000.9
20260504210944 23 189 8.0 14.5 0.00 0.00 0.00 59 1001.1
20260504210436 23 214 9.7 20.9 0.00 0.00 0.00 60 1001.1
20260504205936 23 192 9.7 20.9 0.00 0.00 0.00 58 1001.1
20260504205410 23 199 9.7 20.9 0.00 0.00 0.00 59 1001.2
20260504204905 23 218 9.7 20.9 0.00 0.00 0.00 60 1001.3
20260504204339 23 250 9.7 29.0 0.00 0.00 0.00 59 1001.4
20260504203813 23 227 9.7 29.0 0.00 0.00 0.00 59 1001.6
20260504203249 23 232 9.7 20.9 0.00 0.00 0.00 58 1001.6
20260504202722 23 192 8.0 17.7 0.00 0.00 0.00 57 1001.8
20260504202157 23 218 8.0 16.1 0.00 0.00 0.00 58 1001.8
20260504201629 23 217 9.7 20.9 0.00 0.00 0.00 57 1001.9
20260504201127 23 184 9.7 20.9 0.00 0.00 0.00 57 1002.0
20260504200558 23 211 8.0 20.9 0.00 0.00 0.00 56 1002.0
20260504200056 23 232 6.4 12.9 0.00 0.00 0.00 56 1002.0
20260504195529 23 206 8.0 14.5 0.00 0.00 0.00 58 1002.1
20260504195027 23 201 9.7 16.1 0.00 0.00 0.00 58 1002.2
20260504194524 23 239 11.3 22.5 0.00 0.00 0.00 59 1002.3
20260504194002 23 142 9.7 22.5 0.00 0.00 0.00 56 1002.4
20260504193436 23 211 9.7 19.3 0.00 0.00 0.00 57 1002.6
20260504192943 23 196 9.7 19.3 0.00 0.00 0.00 57 1002.7
20260504192434 22 209 11.3 27.4 0.00 0.00 0.00 57 1002.7
20260504191930 22 208 11.3 27.4 0.00 0.00 0.00 58 1002.7
20260504191430 22 178 11.3 22.5 0.00 0.00 0.00 58 1002.8
20260504190906 22 188 11.3 20.9 0.00 0.00 0.00 59 1002.9
20260504190405 22 174 11.3 19.3 0.00 0.00 0.00 60 1002.9
20260504185903 22 198 12.9 22.5 0.00 0.00 0.00 59 1003.0
20260504185405 22 146 11.3 22.5 0.00 0.00 0.00 59 1003.0
20260504184840 22 202 12.9 20.9 0.00 0.00 0.00 59 1003.1
20260504184317 22 217 11.3 20.9 0.00 0.00 0.00 59 1003.2
20260504183817 22 175 11.3 20.9 0.00 0.00 0.00 57 1003.3
20260504183319 21 213 12.9 20.9 0.00 0.00 0.00 60 1003.3
20260504182817 22 202 11.3 20.9 0.00 0.00 0.00 58 1003.4
20260504182317 22 200 11.3 19.3 0.00 0.00 0.00 60 1003.4
20260504181815 22 197 11.3 19.3 0.00 0.00 0.00 58 1003.4
20260504181315 21 193 11.3 19.3 0.00 0.00 0.00 59 1003.5
20260504180803 21 206 11.3 22.5 0.00 0.00 0.00 60 1003.7
20260504180301 21 203 11.3 22.5 0.00 0.00 0.00 61 1003.6
20260504175733 21 202 11.3 19.3 0.00 0.00 0.00 60 1003.7
20260504175220 21 201 11.3 17.7 0.00 0.00 0.00 61 1003.7
20260504174715 21 201 11.3 17.7 0.00 0.00 0.00 61 1004.1
20260504174154 21 195 9.7 20.9 0.00 0.00 0.00 60 1004.1
20260504173625 21 217 9.7 20.9 0.00 0.00 0.00 62 1004.1
20260504173056 21 236 11.3 19.3 0.00 0.00 0.00 60 1004.1
20260504172534 21 184 9.7 16.1 0.00 0.00 0.00 60 1004.2
20260504172019 21 194 9.7 16.1 0.00 0.00 0.00 62 1004.1
20260504171502 21 195 9.7 19.3 0.00 0.00 0.00 61 1004.2
20260504171000 21 198 9.7 19.3 0.00 0.00 0.00 61 1004.3
20260504170437 21 177 9.7 16.1 0.00 0.00 0.00 64 1004.4
20260504160117 20 194 6.4 12.9 0.00 0.00 0.00 64 1004.9
20260504151000 18 217 6.4 12.9 0.00 0.00 0.00 66 1005.2
20260504150431 17 209 6.4 16.1 0.00 0.00 0.00 66 1005.3
20260504141249 16 217 6.4 19.3 0.00 0.00 0.00 72 1005.7
20260504140731 16 196 6.4 12.9 0.00 0.00 0.00 71 1005.7
20260504140200 15 200 6.4 14.5 0.00 0.00 0.00 71 1005.7